User: anonymous   Login
Location: Asheville, NC
(35.6000°N, 82.5500°W)
Time: 18:51:44
(UTC-04:00)
Language:

FO-29 - Orbit

View from above orbital plane
View from above orbital plane
View from above satellite
View from above satellite

Ground track
Ground track

The orbit data is extracted from the following two-line orbital elements,

1 24278U 96046B   18196.47692360 -.00000064 +00000-0 -30528-4 0  9994
2 24278 098.5163 031.3313 0351038 037.6694 324.8480 13.53084615081819
Epoch (UTC): 15 July 2018 11:26:46
Eccentricity: 0.0351038
inclination: 98.5163°
perigee height: 800 km
apogee height: 1322 km
right ascension of ascending node: 31.3313°
argument of perigee: 37.6694°
revolutions per day: 13.53084615
mean anomaly at epoch: 324.8480°
orbit number at epoch: 8181

The dashed part of the orbit path shows where the satellite is in the earth's shadow,  

DLR